User: anonymous   Login
Location: Unspecified
(0.0000°N, 0.0000°E)
Time: 08:04:59
(UTC+00:00)
Language:

LANDSAT 8 - Orbit

View from above orbital plane
View from above orbital plane
View from above satellite
View from above satellite

Ground track
Ground track

The orbit data is extracted from the following two-line orbital elements,

1 39084U 13008A   14353.80649356  .00000761  00000-0  17887-3 0  6842
2 39084 098.2025 061.4271 0000847 075.4697 284.6565 14.57110900 98483
Epoch (UTC): 19 December 2014 19:21:21
Eccentricity: 0.0000847
inclination: 98.2025°
perigee height: 702 km
apogee height: 703 km
right ascension of ascending node: 61.4271°
argument of perigee: 75.4697°
revolutions per day: 14.57110900
mean anomaly at epoch: 284.6565°
orbit number at epoch: 9848

The dashed part of the orbit path shows where the satellite is in the earth's shadow,  

DLR